Regional Weather Roundup
Issued by NWS

Home | Current Version | Previous Version | Text Only | Print | Product List | Glossary Off
Versions: 1 2 3 4 5 6 7 8 9 10 11 12 13 14 15 16 17 18 19 20 21 22 23 24 25 26 27 28 29 30 31 32 33 34 35 36 37 38 39 40 41 42 43 44 45 46 47 48 49 50

383
ASUS43 KOAX 281410
RWRNE

WEATHER ROUNDUP FOR NEBRASKA
NATIONAL WEATHER SERVICE OMAHA NE
900 AM CDT WED JUN 28 2017

NOTES: SATELLITE DATA IS BEING USED TO AUGMENT CLOUD COVER ABOVE
       12000 FEET.
       "FAIR" INDICATES FEW OR NO CLOUDS BELOW 12,000 FEET WITH NO
       SIGNIFICANT WEATHER AND/OR OBSTRUCTIONS TO VISIBILITY.

  * THESE STATIONS DO NOT REPORT WEATHER SUCH AS RAIN...SNOW OR FOG.

NEZ001>004-019>022-054>056-281500-
NEBRASKA PANHANDLE

CITY           SKY/WX    TMP DP  RH WIND       PRES   REMARKS
SCOTTSBLUFF    SUNNY     62  48  60 W8        29.88F
ALLIANCE       SUNNY     63  53  70 NW9       29.87R
CHADRON        SUNNY     67  53  61 NW7       29.84R
GORDON         FAIR      65  55  70 W8        29.83R
KIMBALL        SUNNY     67  49  53 N8        29.94S
SIDNEY         SUNNY     66  50  56 NW10      29.90S
$$

NEZ057>060-069>072-079>082-281500-
SOUTHWEST NEBRASKA

CITY           SKY/WX    TMP DP  RH WIND       PRES   REMARKS
NORTH PLATTE   SUNNY     69  59  70 NW10      29.79R
IMPERIAL       SUNNY     71  51  49 NW13      29.84R
LEXINGTON      SUNNY     70  62  76 W7        29.77S
MCCOOK         SUNNY     72  60  66 W9        29.78S
OGALLALA       SUNNY     69  53  56 NW15      29.84S
$$

NEZ005>010-023>029-035>040-094-281500-
NORTH CENTRAL NEBRASKA

CITY           SKY/WX    TMP DP  RH WIND       PRES   REMARKS
VALENTINE      SUNNY     72  52  49 NW13      29.75R
AINSWORTH      SUNNY     69  57  67 NW13      29.75S
BROKEN BOW     SUNNY     71  57  61 W12       29.75S
O`NEILL        SUNNY     70  60  70 W10       29.70S
ORD            SUNNY     71  61  70 W5        29.71F
THEDFORD       SUNNY     70  57  63 NW13      29.80S
$$

NEZ041-046>049-061>064-073>077-083>087-281500-
SOUTH CENTRAL NEBRASKA

CITY           SKY/WX    TMP DP  RH WIND       PRES   REMARKS
GRAND ISLAND   CLOUDY    73  67  81 S8        29.75R
AURORA         SUNNY     76  68  76 S9        29.75R
HASTINGS       SUNNY     76  61  59 SW7       29.77R
HEBRON         SUNNY     79  65  62 S12       29.74F
HOLDREGE       SUNNY     74  62  66 W10G16    29.77R
KEARNEY *      SUNNY     73  63  68 W8        29.76S
YORK           SUNNY     75  70  83 S10       29.75R
$$

NEZ011>018-030>034-042>045-281500-
NORTHEAST NEBRASKA

CITY           SKY/WX    TMP DP  RH WIND       PRES   REMARKS
NORFOLK        CLOUDY    68  64  87 SW5       29.69F
ALBION         CLOUDY    70  64  83 CALM      29.71S
BLAIR          CLOUDY    71  66  85 S20G28    29.71F
FREMONT        PTSUNNY   72  68  86 S18       29.71F
TEKAMAH        PTSUNNY   72  67  84 S16       29.70S
WAYNE          PTSUNNY   70  69  99 S14       29.67F
$$

NEZ050>053-065>068-078-088>093-281500-
SOUTHEAST NEBRASKA

CITY           SKY/WX    TMP DP  RH WIND       PRES   REMARKS
LINCOLN        CLOUDY    75  70  84 S13       29.73F
OMAHA EPPLEY   CLOUDY    72  64  76 S18       29.73R
BEATRICE       MOSUNNY   77  70  79 S12       29.76R
FALLS CITY     CLOUDY    70  67  90 E6        29.78R
NEBRASKA CITY  CLOUDY    71  71 100 S14       29.77S
PLATTSMOUTH    CLOUDY    69  65  88 S12G21    29.75F
$$

NEZ044-045-051>053-067-281500-
OMAHA AREA

CITY           SKY/WX    TMP DP  RH WIND       PRES   REMARKS
OMAHA EPPLEY   CLOUDY    72  64  76 S18       29.73R
BLAIR          CLOUDY    71  66  85 S20G28    29.71F
FREMONT        PTSUNNY   72  68  86 S18       29.71F
MILLARD        CLOUDY    73  68  83 SE13      29.74S
OFFUTT AFB     CLOUDY    71  65  83 S10       29.74F
PLATTSMOUTH    CLOUDY    69  65  88 S12G21    29.75F
WAHOO          PTSUNNY   71  68  90 S15       29.72F
$$




USA.gov is the U.S. government's official web portal to all federal, state and local government web resources and services.